Home   Weather   Minot   Past weeks

Flag for USA Past Weather in Minot, North Dakota, USA — Yesterday and Last 2 Weeks

Now
46 °F

Sunny.


Feels Like: 38 °F
Forecast: 24 / 41 °F
Wind: 22 mph from North

Location: Minot International Airport

Current Time: Apr 26, 2017 at 3:01:18 pm

Latest Report: Apr 26, 2017 at 1:54 pm


Visibility: 10 mi

Pressure: 29.86 "Hg

Humidity: 40%

Dew Point: 23 °F

Location of MinotLocation

Past Weather in Minot — Graph

°F

Minot Temperature Yesterday

Maximum temperature yesterday: 43 °F (at 4:54 pm)
Minimum temperature yesterday: 30 °F (at 4:54 am)
Average temperature yesterday: 35 °F

High & Low Weather Summary for the Past Weeks

 TemperatureHumidityPressure
High74 °F (Apr 14, 12:54 pm)100% (Apr 19, 2:43 am)30.33 "Hg (Apr 19, 2:43 am)
Low19 °F (Apr 17, 4:55 am)23% (Apr 11, 7:54 pm)29.54 "Hg (Apr 14, 12:54 pm)
Average42 °F71%30.03 "Hg
* Reported Apr 11 1:54 pm — Apr 26 1:54 pm, Minot, Weather by CustomWeather, © 2017

Note: Actual official high and low records may vary slightly from our data, if they occured in-between our weather recording intervals... More about our weather records

Advertising

Minot Weather History for the Previous 24 Hours

Scroll right to see more
 ConditionsComfort  
Time TempWeatherWind HumidityBarometerVisibility
1:54 pm
Wed, Apr 26
46 °FSunny.22 mph40%29.86 "Hg10 mi
12:54 pm43 °FSunny.18 mph43%29.89 "Hg10 mi
11:54 am39 °FSunny.18 mph50%29.92 "Hg10 mi
10:54 am38 °FSunny.18 mph53%29.96 "Hg10 mi
9:54 am36 °FSunny.14 mph59%29.98 "Hg10 mi
8:54 am32 °FSunny.14 mph69%29.99 "Hg10 mi
7:54 am27 °FSunny.12 mph78%29.99 "Hg10 mi
6:54 am26 °FSunny.9 mph77%29.99 "Hg10 mi
5:54 am27 °FClear.9 mph75%29.99 "Hg10 mi
4:54 am27 °FClear.10 mph78%29.99 "Hg10 mi
3:54 am28 °FClear.10 mph75%29.99 "Hg10 mi
2:54 am29 °FClear.12 mph75%30.00 "Hg10 mi
1:54 am30 °FClear.13 mph75%30.02 "Hg10 mi
12:54 am32 °FPassing clouds.13 mph73%30.03 "Hg10 mi
11:54 pm
Tue, Apr 25
33 °FOvercast.7 mph75%30.03 "Hg10 mi
10:54 pm35 °FOvercast.7 mph70%30.03 "Hg10 mi
9:54 pm37 °FOvercast.10 mph62%30.01 "Hg10 mi
8:54 pm39 °FOvercast.10 mph60%29.99 "Hg10 mi
7:54 pm41 °FOvercast.14 mph55%29.98 "Hg10 mi
6:54 pm43 °FOvercast.15 mph51%29.98 "Hg10 mi
5:54 pm43 °FOvercast.15 mph49%29.97 "Hg10 mi
4:54 pm43 °FOvercast.17 mph51%29.96 "Hg10 mi
3:54 pm41 °FOvercast.18 mph55%29.96 "Hg10 mi
Weather by CustomWeather, © 2017

See weather overviewHow to use our weather pages